This is the latest recevied weather packets stored in our database for station/object KI5QCM-13. If no packets are shown the sender has not sent any weather packets the latest 10 day(s).
| Time | Temp. | Humidity | Pressure | Rain* | Wind** | Luminosity | Snow |
|---|---|---|---|---|---|---|---|
| 1788339654 | 25° C | 76% | 1014.7 hPa | 0 mm | - | 0 W/m² | - |
| 1788339078 | 25° C | 75% | 1014.9 hPa | 0 mm | - | 0 W/m² | - |
| 1788338451 | 25.56° C | 75% | 1014.8 hPa | 0 mm | - | 0 W/m² | - |
| 1788337835 | 25.56° C | 74% | 1014.9 hPa | 0 mm | - | 0 W/m² | - |
| 1788337254 | 25.56° C | 73% | 1014.8 hPa | 0 mm | - | 0 W/m² | - |
| 1788336678 | 26.11° C | 72% | 1014.7 hPa | 0 mm | - | 0 W/m² | - |
| 1788336033 | 26.11° C | 72% | 1014.7 hPa | 0 mm | - | 0 W/m² | - |
| 1788335462 | 26.11° C | 72% | 1014.7 hPa | 0 mm | - | 0 W/m² | - |
| 1788334870 | 26.11° C | 72% | 1014.6 hPa | 0 mm | - | 0 W/m² | - |
| 1788334261 | 26.11° C | 72% | 1014.7 hPa | 0 mm | - | 0 W/m² | - |
| 1788333621 | 25.56° C | 71% | 1014.6 hPa | 0 mm | - | 0 W/m² | - |
| 1788333035 | 25.56° C | 72% | 1014.5 hPa | 0 mm | - | 0 W/m² | - |
| 1788332437 | 25.56° C | 72% | 1014.5 hPa | 0 mm | - | 0 W/m² | - |
| 1788331862 | 25.56° C | 73% | 1014.5 hPa | 0 mm | - | 0 W/m² | - |
| 1788331222 | 25.56° C | 71% | 1014.6 hPa | 0 mm | - | 0 W/m² | - |
| 1788330661 | 25° C | 73% | 1014.6 hPa | 0 mm | - | 0 W/m² | - |
| 1788330054 | 24.44° C | 75% | 1014.5 hPa | 0 mm | - | 0 W/m² | - |
| 1788329482 | 23.89° C | 78% | 1014.4 hPa | 0 mm | - | 0 W/m² | - |
| 1788328822 | 23.89° C | 78% | 1014.3 hPa | 0 mm | - | 0 W/m² | - |
| 1788328230 | 24.44° C | 78% | 1014.3 hPa | 0 mm | - | 0 W/m² | - |
| 1788327654 | 24.44° C | 77% | 1014.2 hPa | 0 mm | - | 0 W/m² | - |
| 1788327062 | 25° C | 75% | 1014.3 hPa | 0 mm | - | 0 W/m² | - |
| 1788326422 | 24.44° C | 75% | 1014.2 hPa | 0 mm | - | 0 W/m² | - |
| 1788325845 | 24.44° C | 77% | 1014.3 hPa | 0 mm | - | 0 W/m² | - |
| 1788325271 | 24.44° C | 76% | 1014.3 hPa | 0 mm | - | 0 W/m² | - |
* Rain latest hour (hover to see other rain measurements)
** Current wind speed in m/s (hover to see current wind gust speed)